Showing default

FLOCK 4BE 9, 60514

Orbit data source: Space-Track

FLOCK 4BE 9, 60514 is a payload satellite owned by Planet (US) in SSO that was launched on Fri, 16 Aug 2024 UTC via an FALCON 9 launch vehicle from the Air Force Western Test Range (AFWTR). Payload-class satellites include a variety of spacecraft equipped with specific instruments for various scientific and technological missions. These include communications satellites like Starlink; space stations such as the ISS; scientific satellites like the Hubble; Earth observation satellites from companies like Planet Labs, Umbra, and HawkEye 360; GPS; miniature CubeSats for education and research; and military/defense satellites.

Loading next visibility...
Identifier
60514, 2024-149AY
Orbit
SSO
Country
Flag of USUS
Related business
Manufacturer
Planet
Mission
Operational Commercial Imaging
Bus & Motor
CUBESAT 3U, Unknown motor
Mass
5.7 kg wet, 5.7 kg dry
Launch date (UTC)
2024-08-16 (2 years ago)
Launch vehicle
FALCON 9
Launch site
Air Force Western Test Range (AFWTR)
Object type
Payload
Rocket body
Debris
Shape & HBR
Box + 2 Pan, 1.0 m
Radar Cross Section
0.072 m², Medium (>0.1 m² and < 1m²)

Expand to show TLE details & history
Last TLE update: 18 hours ago

TLE from 18 hours ago
0 FLOCK 4BE 9
1 60514U 24149AY  26174.64910037  .00012935  00000-0  31605-3 0  9994
2 60514  97.3790 258.9836 0001644 249.6756 110.4314 15.40957098103318
Epoch: 2026-06-23T15:34Z
TLE epoch observation values (Epoch: 2026-06-23T15:34:42.271Z)
Latitude
-0.00005°
Longitude
113.48984°
Altitude
446.795 km
Speed
7.644 km/s
True Right ascension
17h 15m 56s
True Declination
0° 00' 00"
Sunlit
Object was in full shadow at epoch
Visualization orbit readout
Latitude
Unknown
Longitude
Unknown
Altitude
Unknown
Speed
Unknown
Apparent Right ascension
Unknown
Apparent Declination
Unknown
Sunlit
N/A
Visualization observer readout
Local Sidereal Time
20:48:42
Azimuth
Unknown
Elevation
Unknown
Doppler factor
Unknown
Orbital elements
Apogee altitude
441.341 km
Perigee altitude
439.099 km
Semi-major axis
6,818.357 km
Eccentricity
0.00016
Inclination
97.379°
RAAN
258.9836°
Arg. of periapsis
249.6756°
True anomaly
110.44905°
Mean anomaly
110.4314°
Eccentric anomaly
110.44023°
Mean motion
3.85499 °/min
Orbital period
93.39 mins
BSTAR
0.00031605
Loading maneuver chart data...
Computing Atmospheric mass density...
Loading historical data...
Loading historical data...
Loading historical data...
Loading historical data...
Loading historical data...
Loading historical data...
Loading historical data...

Documentation

Showing up to 5 results
|